Weather in Nagorny

Russia / Chelyabinsk Oblast     54°32′26″N   61°17′39″E
temp.,
°C
wind,
m/s
gust,
m/s
humid.,
%
clouds,
%
prec.,
mm/h
press.,
hPa
HPBL,
m
11 april, sun
sun1123:00+1ssw3795100 0.0 1038135
02:000s499453 0.0 1038181
05:000s5109660 0.0 1038240
08:00+2ssw51195100 0.0 1038348
11:00+5ssw61089100 0.0 1037421
14:00+9ssw7974100 0.0 1036573
17:00+10ssw697545 0.0 1035553
20:00+7ssw4109077 0.0 1035249
12 april, mon
mon1223:00+4sw4108827 0.0 1036208
02:00+3sw49866 0.0 1036146
05:00+3sw338463 0.0 103639
08:00+6w117991 0.0 103629
11:00+11ne236671 0.0 1036320
14:00+14ene4565100 0.0 1036775
17:00+13ne4476100 0.0 1036710
20:00+10ne358794 0.0 1038233
13 april, tue
tue1323:00+7ne359294 0.0 1039130
02:00+7ne238394 0.0 103971
05:00+6ene238680 0.0 104048
08:00+7e238355 0.0 1040139
11:00+11ese236320 0.0 1040569
14:00+14sse335119 0.0 1038930
17:00+14s23494 0.0 10371024
20:00+11s22640 0.0 103618
14 april, wed
wed1423:00+9s34720 0.0 103643
02:00+8ssw34813 0.0 103559
05:00+7ssw34875 0.0 103448
08:00+8sw25865 0.0 1033125
11:00+14sw33665 0.0 1032510
14:00+16ssw33555 0.0 1030917
17:00+17ssw33505 0.0 10281035
20:00+13ssw33645 0.0 102728
15 april, thu
thu1523:00+11ssw33695 0.0 102641
02:00+9sw33715 0.0 102528
05:00+8wsw22765 0.0 102415
08:00+10wsw12775 0.0 102467
11:00+14wsw11625 0.0 1022421
14:00+17ssw115150 0.0 1021970
17:00+18ssw12465 0.0 10191272
20:00+15s23595 0.0 101821